Weather History for KDXX - November, 2013

Change the Weather History Date:

Friday, November 1, 2013

  Actual Average (KAQP) Record (KAQP)
Temperature  
Mean Temperature 43 °F -  
Max Temperature 51 °F 45 °F 69 °F (2000)
Min Temperature 35 °F 28 °F 10 °F (2006)
Degree Days  
Heating Degree Days 22    
Moisture  
Dew Point 39 °F    
Average Humidity 80    
Maximum Humidity 93    
Minimum Humidity 62    
Precipitation  
Precipitation 0.00 in - - ()
Sea Level Pressure  
Sea Level Pressure 29.69 in    
Wind  
Wind Speed 10 mph (WNW)    
Max Wind Speed 22 mph    
Max Gust Speed 29 mph    
Visibility 10 miles    
Events Rain    
Averages and records for this station are not official NWS values.
T = Trace of Precipitation, MM = Missing Value Source: NWS Daily Summary

Daily Weather History Graph

Daily Weather History Graph

Search for Another Location

Airport or City:

Trip Planner

Search our weather history database for the weather conditions in past years. The results will help you decide how hot, cold, wet, or windy it might be!

Date:

Astronomy

Nov. 01, 2013 Rise Set
Actual Time 8:03 AM CDT 6:12 PM CDT
Civil Twilight 7:32 AM CDT 6:43 PM CDT
Nautical Twilight 6:58 AM CDT 7:17 PM CDT
Astronomical Twilight 6:24 AM CDT 7:51 PM CDT
Moon 5:52 AM CDT (11/1) 5:09 PM CDT (11/1)
Length of Visible Light 11h 10m
Length of Day
10h 08m
Waning Crescent, 4% of the Moon is Illuminated
Nov 1
Waning Crescent
Nov 3
New
Nov 9
First Quarter
Nov 17
Full
Nov 25
Last Quarter

Hourly Weather History & Observations

Time (CDT) Temp. Windchill Dew Point Humidity Pressure Visibility Wind Dir Wind Speed Gust Speed Precip Events Conditions
12:14 AM 41.0 °F 35.2 °F 37.4 °F 87% 29.49 in 7.0 mi WNW 9.2 mph - N/A   Scattered Clouds
12:34 AM 39.2 °F 35.0 °F 37.4 °F 93% 29.49 in 7.0 mi WNW 5.8 mph - N/A   Clear
12:53 AM 39.2 °F 33.0 °F 37.4 °F 93% 29.49 in 7.0 mi WNW 9.2 mph - N/A   Clear
1:14 AM 41.0 °F 34.7 °F 37.4 °F 87% 29.50 in 10.0 mi WNW 10.4 mph - N/A   Clear
1:34 AM 41.0 °F 35.8 °F 37.4 °F 87% 29.51 in 10.0 mi NW 8.1 mph - N/A   Scattered Clouds
1:53 AM 42.8 °F 38.0 °F 37.4 °F 81% 29.52 in 10.0 mi WNW 8.1 mph - N/A   Scattered Clouds
2:14 AM 41.0 °F 35.8 °F 37.4 °F 87% 29.52 in 10.0 mi WNW 8.1 mph - N/A   Mostly Cloudy
2:33 AM 42.8 °F 37.5 °F 37.4 °F 81% 29.53 in 10.0 mi WNW 9.2 mph - N/A   Scattered Clouds
2:53 AM 42.8 °F 37.5 °F 37.4 °F 81% 29.53 in 10.0 mi WNW 9.2 mph - N/A   Scattered Clouds
3:14 AM 42.8 °F 38.0 °F 37.4 °F 81% 29.53 in 10.0 mi WNW 8.1 mph - N/A   Scattered Clouds
3:33 AM 42.8 °F 37.5 °F 37.4 °F 81% 29.54 in 10.0 mi WNW 9.2 mph - N/A   Scattered Clouds
3:54 AM 41.0 °F 34.3 °F 35.6 °F 81% 29.55 in 10.0 mi WNW 11.5 mph - N/A   Scattered Clouds
4:13 AM 41.0 °F 35.8 °F 35.6 °F 81% 29.56 in 10.0 mi West 8.1 mph - N/A   Scattered Clouds
4:34 AM 39.2 °F 33.0 °F 35.6 °F 87% 29.56 in 10.0 mi West 9.2 mph - N/A   Clear
4:54 AM 39.2 °F 33.0 °F 35.6 °F 87% 29.56 in 10.0 mi WNW 9.2 mph - N/A   Clear
5:13 AM 39.2 °F 32.5 °F 35.6 °F 87% 29.57 in 10.0 mi WNW 10.4 mph - N/A   Clear
5:34 AM 39.2 °F 34.2 °F 35.6 °F 87% 29.58 in 10.0 mi West 6.9 mph - N/A   Clear
5:54 AM 39.2 °F 33.6 °F 35.6 °F 87% 29.58 in 10.0 mi West 8.1 mph - N/A   Clear
6:13 AM 37.4 °F 32.1 °F 33.8 °F 87% 29.59 in 10.0 mi West 6.9 mph - N/A   Clear
6:34 AM 37.4 °F 31.4 °F 33.8 °F 87% 29.60 in 10.0 mi West 8.1 mph - N/A   Clear
6:54 AM 35.6 °F 29.9 °F 33.8 °F 93% 29.60 in 10.0 mi West 6.9 mph - N/A   Clear
7:13 AM 37.4 °F 32.8 °F 35.6 °F 93% 29.60 in 10.0 mi West 5.8 mph - N/A   Clear
7:34 AM 37.4 °F 32.1 °F 35.6 °F 93% 29.60 in 10.0 mi West 6.9 mph - N/A   Clear
7:54 AM 37.4 °F 32.8 °F 35.6 °F 93% 29.60 in 10.0 mi West 5.8 mph - N/A   Clear
8:13 AM 37.4 °F 31.4 °F 35.6 °F 93% 29.61 in 10.0 mi West 8.1 mph - N/A   Clear
8:34 AM 37.4 °F 31.4 °F 35.6 °F 93% 29.62 in 7.0 mi West 8.1 mph - N/A   Clear
8:54 AM 39.2 °F 33.6 °F 35.6 °F 87% 29.63 in 10.0 mi West 8.1 mph - N/A   Clear
9:13 AM 39.2 °F 34.2 °F 35.6 °F 87% 29.63 in 10.0 mi West 6.9 mph - N/A   Clear
9:34 AM 42.8 °F 37.5 °F 37.4 °F 81% 29.63 in 10.0 mi WNW 9.2 mph - N/A   Clear
9:53 AM 44.6 °F 38.8 °F 37.4 °F 76% 29.64 in 10.0 mi WNW 11.5 mph - N/A   Clear
10:13 AM 46.4 °F 40.1 °F 37.4 °F 71% 29.64 in 10.0 mi WNW 15.0 mph - N/A   Clear
10:34 AM 48.2 °F - 39.2 °F 71% 29.64 in 10.0 mi WNW 16.1 mph - N/A   Clear
10:54 AM 48.2 °F - 39.2 °F 71% 29.64 in 10.0 mi NW 15.0 mph 24.2 mph N/A   Clear
11:13 AM 50.0 °F - 39.2 °F 66% 29.64 in 10.0 mi NW 16.1 mph 25.3 mph N/A   Clear
11:34 AM 51.8 °F - 39.2 °F 62% 29.64 in 10.0 mi WNW 17.3 mph 23.0 mph N/A   Clear
11:53 AM 51.8 °F - 39.2 °F 62% 29.65 in 10.0 mi WNW 20.7 mph 25.3 mph N/A   Clear
12:13 PM 51.8 °F - 39.2 °F 62% 29.66 in 10.0 mi WNW 21.9 mph 28.8 mph N/A   Scattered Clouds
12:34 PM 51.8 °F - 39.2 °F 62% 29.67 in 10.0 mi WNW 15.0 mph 24.2 mph N/A   Overcast
12:53 PM 51.8 °F - 39.2 °F 62% 29.67 in 10.0 mi NW 17.3 mph 23.0 mph N/A   Overcast
1:14 PM 51.8 °F - 39.2 °F 62% 29.68 in 10.0 mi NW 17.3 mph 24.2 mph N/A   Overcast
1:33 PM 50.0 °F - 39.2 °F 66% 29.68 in 10.0 mi NW 17.3 mph 24.2 mph N/A   Overcast
1:54 PM 51.8 °F - 39.2 °F 62% 29.68 in 10.0 mi NW 18.4 mph 24.2 mph N/A   Overcast
2:14 PM 51.8 °F - 41.0 °F 67% 29.69 in 10.0 mi NW 15.0 mph - N/A   Overcast
2:34 PM 51.8 °F - 39.2 °F 62% 29.69 in 10.0 mi NW 13.8 mph 24.2 mph N/A   Mostly Cloudy
2:54 PM 50.0 °F - 41.0 °F 71% 29.70 in 10.0 mi NNW 15.0 mph 19.6 mph N/A   Overcast
3:13 PM 48.2 °F - 39.2 °F 71% 29.71 in 10.0 mi NNW 13.8 mph 19.6 mph N/A   Overcast
3:34 PM 48.2 °F - 39.2 °F 71% 29.72 in 10.0 mi NNW 12.7 mph - N/A   Overcast
3:54 PM 48.2 °F - 41.0 °F 76% 29.73 in 10.0 mi NW 9.2 mph - N/A   Overcast
4:13 PM 48.2 °F - 39.2 °F 71% 29.74 in 10.0 mi NW 12.7 mph 17.3 mph N/A   Overcast
4:34 PM 48.2 °F - 39.2 °F 71% 29.75 in 10.0 mi NNW 12.7 mph 18.4 mph N/A   Mostly Cloudy
4:53 PM 48.2 °F - 39.2 °F 71% 29.76 in 10.0 mi NW 16.1 mph - N/A   Mostly Cloudy
5:13 PM 48.2 °F - 41.0 °F 76% 29.77 in 10.0 mi NW 10.4 mph - N/A   Overcast
5:34 PM 46.4 °F 40.7 °F 42.8 °F 87% 29.79 in 10.0 mi NNW 12.7 mph 19.6 mph N/A   Drizzle
5:53 PM 46.4 °F 41.5 °F 42.8 °F 87% 29.80 in 10.0 mi NW 10.4 mph - N/A Rain Light Rain
6:13 PM 46.4 °F 41.5 °F 42.8 °F 87% 29.81 in 10.0 mi NW 10.4 mph - N/A   Overcast
6:34 PM 46.4 °F 41.5 °F 42.8 °F 87% 29.82 in 10.0 mi NW 10.4 mph - N/A   Mostly Cloudy
6:53 PM 46.4 °F 41.5 °F 42.8 °F 87% 29.83 in 10.0 mi NW 10.4 mph - N/A   Overcast
7:13 PM 46.4 °F 41.9 °F 42.8 °F 87% 29.84 in 10.0 mi NW 9.2 mph - N/A   Overcast
7:34 PM 46.4 °F 41.9 °F 42.8 °F 87% 29.85 in 10.0 mi NW 9.2 mph - N/A   Overcast
7:53 PM 46.4 °F 41.5 °F 42.8 °F 87% 29.85 in 10.0 mi WNW 10.4 mph - N/A   Overcast
8:13 PM 46.4 °F 41.9 °F 42.8 °F 87% 29.86 in 10.0 mi NW 9.2 mph - N/A   Overcast
8:34 PM 46.4 °F 40.7 °F 41.0 °F 81% 29.87 in 10.0 mi NW 12.7 mph - N/A   Mostly Cloudy
8:53 PM 46.4 °F 41.1 °F 41.0 °F 81% 29.87 in 10.0 mi NW 11.5 mph - N/A   Scattered Clouds
9:14 PM 46.4 °F 40.1 °F 41.0 °F 81% 29.88 in 10.0 mi NW 15.0 mph - N/A Rain Light Rain
9:33 PM 46.4 °F 40.4 °F 41.0 °F 81% 29.89 in 10.0 mi NW 13.8 mph 18.4 mph N/A Rain Light Rain
9:54 PM 46.4 °F 40.4 °F 39.2 °F 76% 29.90 in 10.0 mi NW 13.8 mph 19.6 mph N/A   Light Drizzle
10:14 PM 46.4 °F 40.1 °F 39.2 °F 76% 29.91 in 10.0 mi NW 15.0 mph 20.7 mph N/A   Light Drizzle
10:33 PM 46.4 °F 40.4 °F 39.2 °F 76% 29.92 in 10.0 mi NW 13.8 mph 18.4 mph N/A   Overcast
10:54 PM 46.4 °F 40.1 °F 39.2 °F 76% 29.92 in 10.0 mi NW 15.0 mph 19.6 mph N/A   Mostly Cloudy
11:14 PM 46.4 °F 40.7 °F 39.2 °F 76% 29.93 in 10.0 mi NW 12.7 mph 19.6 mph N/A   Mostly Cloudy
11:33 PM 44.6 °F 37.8 °F 39.2 °F 81% 29.93 in 10.0 mi NW 15.0 mph 19.6 mph N/A   Mostly Cloudy
11:54 PM 44.6 °F 38.1 °F 39.2 °F 81% 29.94 in 10.0 mi NW 13.8 mph - N/A   Overcast